User: anonymous   Login
Location: Sandbanks Provincial Park
(47.6073°N, 57.6428°W)
Time: 20:43:48
(UTC-03:-30)
Language:

Cosmos 2034 Rocket - Orbit

View from above orbital plane
View from above orbital plane
View from above satellite
View from above satellite

Ground track
Ground track

The orbit data is extracted from the following two-line orbital elements,

1 20150U 89059B   14331.16337508  .00000096  00000-0  83796-4 0   762
2 20150 082.9414 066.2540 0028657 010.6261 035.4412 13.75590571272110
Epoch (UTC): 27 November 2014 03:55:15
Eccentricity: 0.0028657
inclination: 82.9414°
perigee height: 958 km
apogee height: 1000 km
right ascension of ascending node: 66.2540°
argument of perigee: 10.6261°
revolutions per day: 13.75590571
mean anomaly at epoch: 35.4412°
orbit number at epoch: 27211

The dashed part of the orbit path shows where the satellite is in the earth's shadow,  

DLR